Regional Weather Roundup
Issued by NWS

Home | Current Version | Previous Version | Text Only | Print | Product List | Glossary Off
Versions: 1 2 3 4 5 6 7 8 9 10 11 12 13 14 15 16 17 18 19 20 21 22 23 24 25 26 27 28 29 30 31 32 33 34 35 36 37 38 39 40 41 42 43 44 45 46 47 48 49 50

000
ASUS43 KLMK 210202
RWRKY
KENTUCKY REGIONAL WEATHER ROUNDUP
NATIONAL WEATHER SERVICE LOUISVILLE KY
1000 PM EDT FRI APR 20 2018

NOTE "FAIR" INDICATES FEW OR NO CLOUDS BELOW 12,000 FEET
WITH NO SIGNIFICANT WEATHER AND/OR OBSTRUCTIONS TO VISIBILITY.

KYZ001>023-026-027-061>063-070>075-210300-
WESTERN AND SOUTH CENTRAL KENTUCKY

CITY           SKY/WX    TMP DP  RH WIND       PRES   REMARKS
PADUCAH        FAIR      55  31  39 NE6       30.30S
HENDERSON      FAIR      50  33  52 E6        30.34S
OWENSBORO      FAIR      54  28  36 E7        30.35S
HOPKINSVILLE   FAIR      55  31  40 E5        30.31R
BOWLING GREEN  FAIR      52  32  46 NE3       30.34S
GLASGOW        NOT AVBL
$$

KYZ024-025-028>034-038-045-046-053-210300-
NORTH CENTRAL KENTUCKY

CITY           SKY/WX    TMP DP  RH WIND       PRES   REMARKS
LOUISVILLE/SDF FAIR      57  25  29 NE6       30.37S
LOUISVILLE/LOU FAIR      54  27  35 NE6       30.38S
FORT KNOX      FAIR      54  24  31 NE3       30.37S
$$

KYZ035>037-039>044-047>052-055>060-089>105-210300-
NORTHEAST KENTUCKY

CITY           SKY/WX    TMP DP  RH WIND       PRES   REMARKS
LEXINGTON      FAIR      48  28  46 NE7       30.39S
COVINGTON      FAIR      54  23  30 NE9       30.40S
FRANKFORT      FAIR      53  21  28 NE6       30.38S
$$

KYZ054-064>069-076>088-106>120-210300-
SOUTHEAST KENTUCKY

CITY           SKY/WX    TMP DP  RH WIND       PRES   REMARKS
JACKSON        FAIR      51  21  30 NE5       30.38R
LONDON         FAIR      51  25  36 N7        30.35R
SOMERSET       NOT AVBL
MIDDLESBORO    FAIR      49  32  52 CALM      30.35R
MONTICELLO     FAIR      51  30  44 N15       30.37S
$$





USA.gov is the U.S. government's official web portal to all federal, state and local government web resources and services.